| time (UTC) | temp F | wind direction | speed MPH | gust MPH | rain 1hr in | rain 24hr in | rain mn in | humidity % | barometer mb |
| 20260504191822 | 75 | 346 | 7.0 | 8.0 | 0.00 | 0.00 | 0.00 | 30 | 1002.8 |
| 20260504191318 | 74 | 45 | 8.0 | 10.0 | 0.00 | 0.00 | 0.00 | 31 | 1002.8 |
| 20260504190814 | 74 | 14 | 9.0 | 10.0 | 0.00 | 0.00 | 0.00 | 31 | 1002.8 |
| 20260504190310 | 74 | 318 | 10.0 | 13.0 | 0.00 | 0.00 | 0.00 | 31 | 1002.8 |
| 20260504185807 | 74 | 41 | 6.0 | 8.0 | 0.00 | 0.00 | 0.00 | 31 | 1002.8 |
| 20260504185304 | 74 | 32 | 10.0 | 13.0 | 0.00 | 0.00 | 0.00 | 30 | 1002.7 |
| 20260504184800 | 74 | 353 | 5.0 | 8.0 | 0.00 | 0.00 | 0.00 | 32 | 1002.6 |
| 20260504184255 | 75 | 0 | 11.0 | 15.0 | 0.00 | 0.00 | 0.00 | 30 | 1002.7 |
| 20260504183752 | 74 | 12 | 9.0 | 11.0 | 0.00 | 0.00 | 0.00 | 31 | 1002.7 |
| 20260504183249 | 75 | 10 | 9.0 | 11.0 | 0.00 | 0.00 | 0.00 | 33 | 1002.7 |
| 20260504182747 | 74 | 343 | 4.0 | 6.0 | 0.00 | 0.00 | 0.00 | 34 | 1002.8 |
| 20260504182244 | 73 | 345 | 7.0 | 8.0 | 0.00 | 0.00 | 0.00 | 35 | 1002.5 |
| 20260504181741 | 74 | 53 | 8.0 | 13.0 | 0.00 | 0.00 | 0.00 | 34 | 1002.6 |
| 20260504181238 | 74 | 180 | 6.0 | 8.0 | 0.00 | 0.00 | 0.00 | 35 | 1002.5 |
| 20260504180738 | 73 | 332 | 11.0 | 13.0 | 0.00 | 0.00 | 0.00 | 34 | 1002.4 |
| 20260504180236 | 74 | 38 | 8.0 | 11.0 | 0.00 | 0.00 | 0.00 | 38 | 1002.5 |
| 20260504175733 | 74 | 339 | 5.0 | 6.0 | 0.00 | 0.00 | 0.00 | 38 | 1002.6 |
| 20260504175229 | 73 | 57 | 3.0 | 5.0 | 0.00 | 0.00 | 0.00 | 39 | 1002.4 |
| 20260504174728 | 74 | 20 | 5.0 | 7.0 | 0.00 | 0.00 | 0.00 | 40 | 1002.3 |
| 20260504174225 | 73 | 12 | 6.0 | 7.0 | 0.00 | 0.00 | 0.00 | 40 | 1002.3 |
| 20260504173721 | 73 | 359 | 9.0 | 11.0 | 0.00 | 0.00 | 0.00 | 39 | 1002.2 |
| 20260504173219 | 73 | 324 | 7.0 | 9.0 | 0.00 | 0.00 | 0.00 | 42 | 1002.4 |
| 20260504172716 | 72 | 16 | 10.0 | 11.0 | 0.00 | 0.00 | 0.00 | 41 | 1002.5 |
| 20260504172212 | 73 | 330 | 5.0 | 6.0 | 0.00 | 0.00 | 0.00 | 42 | 1002.4 |
| 20260504171708 | 73 | 336 | 6.0 | 8.0 | 0.00 | 0.00 | 0.00 | 42 | 1002.3 |
| 20260504171205 | 72 | 330 | 5.0 | 8.0 | 0.00 | 0.00 | 0.00 | 42 | 1002.4 |
| 20260504170701 | 72 | 357 | 5.0 | 6.0 | 0.00 | 0.00 | 0.00 | 44 | 1002.4 |
| 20260504170159 | 72 | 52 | 8.0 | 10.0 | 0.00 | 0.00 | 0.00 | 43 | 1002.5 |
| 20260504160118 | 74 | 343 | 8.0 | 9.0 | 0.00 | 0.00 | 0.00 | 34 | 1001.3 |
| 20260504151045 | 74 | 322 | 11.0 | 11.0 | 0.00 | 0.00 | 0.00 | 34 | 1001.1 |
| 20260504150543 | 74 | 298 | 15.0 | 17.0 | 0.00 | 0.00 | 0.00 | 34 | 1001.4 |
| 20260504141009 | 68 | 234 | 4.0 | 5.0 | 0.00 | 0.00 | 0.00 | 40 | 1001.6 |
| 20260504140505 | 68 | 223 | 3.0 | 3.0 | 0.00 | 0.00 | 0.00 | 41 | 1001.4 |
| 20260504130430 | 59 | 170 | 0.0 | 1.0 | 0.00 | 0.00 | 0.00 | 55 | 1002.3 |
| 20260504110317 | 49 | 182 | 0.0 | 0.0 | 0.00 | 0.00 | 0.00 | 71 | 1002.0 |
| 20260504100235 | 50 | 182 | 0.0 | 0.0 | 0.00 | 0.00 | 0.00 | 67 | 1002.5 |
| 20260504081627 | 51 | 183 | 0.0 | 0.0 | 0.00 | 0.00 | 0.00 | 63 | 1002.8 |
| 20260504081123 | 52 | 183 | 0.0 | 0.0 | 0.00 | 0.00 | 0.00 | 61 | 1003.1 |
| 20260504080620 | 52 | 183 | 1.0 | 1.0 | 0.00 | 0.00 | 0.00 | 60 | 1003.2 |
| 20260504080116 | 52 | 183 | 0.0 | 0.0 | 0.00 | 0.00 | 0.00 | 60 | 1003.2 |
| 20260504050433 | 53 | 157 | 1.0 | 1.0 | 0.00 | 0.00 | 0.00 | 58 | 1005.9 |
| 20260504045930 | 55 | 156 | 0.0 | 0.0 | 0.00 | 0.00 | 0.00 | 53 | 1006.0 |
| 20260504045426 | 53 | 156 | 0.0 | 0.0 | 0.00 | 0.00 | 0.00 | 55 | 1005.8 |
| 20260504044922 | 54 | 156 | 0.0 | 0.0 | 0.00 | 0.00 | 0.00 | 56 | 1005.9 |
| 20260504044420 | 55 | 156 | 0.0 | 0.0 | 0.00 | 0.00 | 0.00 | 53 | 1006.0 |
| 20260504043917 | 55 | 156 | 0.0 | 0.0 | 0.00 | 0.00 | 0.00 | 53 | 1006.0 |
| 20260504043414 | 54 | 156 | 0.0 | 0.0 | 0.00 | 0.00 | 0.00 | 51 | 1006.2 |
| 20260504042911 | 55 | 156 | 0.0 | 0.0 | 0.00 | 0.00 | 0.00 | 52 | 1006.1 |
| 20260504042408 | 55 | 156 | 0.0 | 0.0 | 0.00 | 0.00 | 0.00 | 54 | 1006.3 |
| 20260504041904 | 55 | 156 | 0.0 | 0.0 | 0.00 | 0.00 | 0.00 | 49 | 1006.5 |
| 20260504041400 | 55 | 156 | 1.0 | 1.0 | 0.00 | 0.00 | 0.00 | 50 | 1006.4 |
| 20260504040856 | 55 | 156 | 1.0 | 2.0 | 0.00 | 0.00 | 0.00 | 48 | 1006.3 |
| 20260504040354 | 55 | 158 | 1.0 | 1.0 | 0.00 | 0.00 | 0.00 | 55 | 1006.6 |
| 20260504035849 | 55 | 170 | 3.0 | 3.0 | 0.00 | 0.00 | 0.00 | 54 | 1006.5 |
| 20260504035348 | 56 | 151 | 1.0 | 1.0 | 0.00 | 0.00 | 0.00 | 53 | 1006.4 |
| 20260504034844 | 58 | 150 | 0.0 | 0.0 | 0.00 | 0.00 | 0.00 | 52 | 1006.4 |
| 20260504034342 | 58 | 150 | 0.0 | 0.0 | 0.00 | 0.00 | 0.00 | 51 | 1006.5 |
| 20260504033838 | 58 | 150 | 0.0 | 0.0 | 0.00 | 0.00 | 0.00 | 49 | 1006.8 |
| 20260504033337 | 58 | 150 | 0.0 | 0.0 | 0.00 | 0.00 | 0.00 | 49 | 1006.9 |
| 20260504032833 | 58 | 150 | 1.0 | 1.0 | 0.00 | 0.00 | 0.00 | 52 | 1006.7 |
| 20260504032330 | 60 | 150 | 1.0 | 2.0 | 0.00 | 0.00 | 0.00 | 46 | 1006.8 |
| 20260504031827 | 60 | 157 | 1.0 | 2.0 | 0.00 | 0.00 | 0.00 | 47 | 1006.9 |
| 20260504031324 | 61 | 186 | 0.0 | 0.0 | 0.00 | 0.00 | 0.00 | 45 | 1007.0 |
| 20260504030820 | 62 | 191 | 0.0 | 0.0 | 0.00 | 0.00 | 0.00 | 40 | 1006.8 |
| 20260504030318 | 62 | 192 | 1.0 | 1.0 | 0.00 | 0.00 | 0.00 | 39 | 1007.0 |
| 20260504025814 | 61 | 198 | 1.0 | 1.0 | 0.00 | 0.00 | 0.00 | 40 | 1007.0 |
| 20260504025311 | 61 | 198 | 0.0 | 0.0 | 0.00 | 0.00 | 0.00 | 45 | 1006.9 |
| 20260504024807 | 60 | 198 | 1.0 | 1.0 | 0.00 | 0.00 | 0.00 | 46 | 1006.9 |
| 20260504024304 | 61 | 199 | 0.0 | 0.0 | 0.00 | 0.00 | 0.00 | 44 | 1006.9 |
| 20260504023800 | 62 | 200 | 0.0 | 0.0 | 0.00 | 0.00 | 0.00 | 41 | 1006.8 |
| 20260504023257 | 62 | 200 | 0.0 | 0.0 | 0.00 | 0.00 | 0.00 | 41 | 1006.9 |
| 20260504022753 | 63 | 200 | 0.0 | 0.0 | 0.00 | 0.00 | 0.00 | 41 | 1006.9 |
| 20260504022249 | 63 | 200 | 0.0 | 0.0 | 0.00 | 0.00 | 0.00 | 40 | 1007.1 |
| 20260504021746 | 63 | 200 | 0.0 | 0.0 | 0.00 | 0.00 | 0.00 | 42 | 1007.1 |
| 20260504021244 | 63 | 204 | 0.0 | 0.0 | 0.00 | 0.00 | 0.00 | 39 | 1007.1 |
| 20260504020741 | 64 | 204 | 0.0 | 0.0 | 0.00 | 0.00 | 0.00 | 41 | 1007.2 |
| 20260504020237 | 64 | 204 | 0.0 | 0.0 | 0.00 | 0.00 | 0.00 | 39 | 1007.2 |
| 20260504015733 | 65 | 204 | 0.0 | 0.0 | 0.00 | 0.00 | 0.00 | 37 | 1007.1 |
| 20260504015230 | 65 | 204 | 0.0 | 0.0 | 0.00 | 0.00 | 0.00 | 39 | 1007.1 |
| 20260504014726 | 66 | 204 | 0.0 | 0.0 | 0.00 | 0.00 | 0.00 | 37 | 1007.2 |
| 20260504014223 | 66 | 204 | 0.0 | 0.0 | 0.00 | 0.00 | 0.00 | 36 | 1007.2 |
| 20260504013720 | 66 | 205 | 0.0 | 0.0 | 0.00 | 0.00 | 0.00 | 36 | 1007.4 |
| 20260504013218 | 67 | 206 | 0.0 | 0.0 | 0.00 | 0.00 | 0.00 | 35 | 1007.4 |
| 20260504012714 | 68 | 207 | 0.0 | 0.0 | 0.00 | 0.00 | 0.00 | 34 | 1007.4 |
| 20260504012212 | 69 | 255 | 0.0 | 0.0 | 0.00 | 0.00 | 0.00 | 34 | 1007.3 |
| 20260504011709 | 70 | 259 | 0.0 | 0.0 | 0.00 | 0.00 | 0.00 | 33 | 1007.4 |
| 20260504011205 | 70 | 259 | 0.0 | 0.0 | 0.00 | 0.00 | 0.00 | 31 | 1007.5 |
| 20260504010701 | 71 | 260 | 1.0 | 1.0 | 0.00 | 0.00 | 0.00 | 30 | 1007.8 |
| 20260504010157 | 72 | 260 | 0.0 | 0.0 | 0.00 | 0.00 | 0.00 | 30 | 1007.5 |
| 20260504005654 | 73 | 261 | 0.0 | 0.0 | 0.00 | 0.00 | 0.00 | 30 | 1007.6 |
| 20260504005151 | 73 | 275 | 2.0 | 2.0 | 0.00 | 0.00 | 0.00 | 29 | 1007.6 |
| 20260504004649 | 73 | 312 | 4.0 | 5.0 | 0.00 | 0.00 | 0.00 | 29 | 1007.8 |
| 20260504004146 | 73 | 289 | 2.0 | 3.0 | 0.00 | 0.00 | 0.00 | 28 | 1007.6 |
| 20260504003642 | 73 | 340 | 1.0 | 2.0 | 0.00 | 0.00 | 0.00 | 29 | 1008.1 |
| 20260504003139 | 73 | 314 | 2.0 | 3.0 | 0.00 | 0.00 | 0.00 | 29 | 1007.8 |
| 20260504002636 | 74 | 270 | 4.0 | 5.0 | 0.00 | 0.00 | 0.00 | 28 | 1008.1 |
| 20260504002133 | 74 | 328 | 5.0 | 7.0 | 0.00 | 0.00 | 0.00 | 27 | 1008.2 |
| 20260504001631 | 74 | 353 | 4.0 | 5.0 | 0.00 | 0.00 | 0.00 | 28 | 1007.9 |
| 20260504001127 | 74 | 284 | 5.0 | 6.0 | 0.00 | 0.00 | 0.00 | 27 | 1007.8 |
| 20260504000624 | 74 | 278 | 5.0 | 6.0 | 0.00 | 0.00 | 0.00 | 28 | 1008.1 |
| 20260504000121 | 74 | 290 | 5.0 | 6.0 | 0.00 | 0.00 | 0.00 | 28 | 1008.1 |
| 20260503235620 | 74 | 274 | 6.0 | 7.0 | 0.00 | 0.00 | 0.00 | 28 | 1007.8 |
| 20260503235116 | 74 | 314 | 7.0 | 9.0 | 0.00 | 0.00 | 0.00 | 27 | 1007.9 |
| 20260503234614 | 75 | 287 | 10.0 | 14.0 | 0.00 | 0.00 | 0.00 | 27 | 1008.2 |
| 20260503234112 | 75 | 280 | 5.0 | 5.0 | 0.00 | 0.00 | 0.00 | 28 | 1008.2 |
| 20260503233609 | 75 | 354 | 5.0 | 6.0 | 0.00 | 0.00 | 0.00 | 27 | 1008.2 |
| 20260503233059 | 75 | 274 | 5.0 | 6.0 | 0.00 | 0.00 | 0.00 | 27 | 1008.3 |
| 20260503232556 | 75 | 291 | 5.0 | 5.0 | 0.00 | 0.00 | 0.00 | 27 | 1008.1 |
| 20260503232053 | 75 | 306 | 6.0 | 7.0 | 0.00 | 0.00 | 0.00 | 27 | 1008.2 |
| 20260503231551 | 75 | 348 | 5.0 | 7.0 | 0.00 | 0.00 | 0.00 | 27 | 1008.1 |
| 20260503231048 | 75 | 31 | 3.0 | 5.0 | 0.00 | 0.00 | 0.00 | 28 | 1007.9 |
| 20260503230544 | 75 | 331 | 6.0 | 8.0 | 0.00 | 0.00 | 0.00 | 27 | 1008.2 |
| 20260503230042 | 75 | 327 | 8.0 | 9.0 | 0.00 | 0.00 | 0.00 | 27 | 1008.2 |
| 20260503225538 | 75 | 322 | 7.0 | 8.0 | 0.00 | 0.00 | 0.00 | 27 | 1008.2 |
| 20260503225039 | 75 | 14 | 3.0 | 6.0 | 0.00 | 0.00 | 0.00 | 29 | 1008.4 |
| 20260503224537 | 75 | 348 | 8.0 | 10.0 | 0.00 | 0.00 | 0.00 | 28 | 1008.4 |
| 20260503224035 | 75 | 295 | 6.0 | 7.0 | 0.00 | 0.00 | 0.00 | 27 | 1008.2 |
| 20260503223532 | 75 | 262 | 3.0 | 3.0 | 0.00 | 0.00 | 0.00 | 27 | 1008.3 |
| 20260503223027 | 75 | 8 | 3.0 | 3.0 | 0.00 | 0.00 | 0.00 | 27 | 1008.4 |
| 20260503222525 | 75 | 230 | 2.0 | 2.0 | 0.00 | 0.00 | 0.00 | 28 | 1008.4 |
| 20260503222023 | 75 | 304 | 4.0 | 5.0 | 0.00 | 0.00 | 0.00 | 29 | 1008.5 |
| 20260503221521 | 75 | 325 | 4.0 | 5.0 | 0.00 | 0.00 | 0.00 | 28 | 1008.5 |
| 20260503221019 | 75 | 290 | 8.0 | 10.0 | 0.00 | 0.00 | 0.00 | 28 | 1008.7 |
| 20260503220514 | 75 | 346 | 11.0 | 14.0 | 0.00 | 0.00 | 0.00 | 28 | 1008.8 |
| 20260503220011 | 75 | 279 | 10.0 | 11.0 | 0.00 | 0.00 | 0.00 | 26 | 1008.7 |
| 20260503215508 | 75 | 301 | 3.0 | 3.0 | 0.00 | 0.00 | 0.00 | 28 | 1008.8 |
| 20260503215005 | 75 | 312 | 5.0 | 7.0 | 0.00 | 0.00 | 0.00 | 29 | 1008.7 |
| 20260503214504 | 75 | 317 | 5.0 | 8.0 | 0.00 | 0.00 | 0.00 | 29 | 1008.8 |
| 20260503214000 | 75 | 354 | 7.0 | 9.0 | 0.00 | 0.00 | 0.00 | 28 | 1008.7 |
| 20260503213459 | 75 | 331 | 4.0 | 5.0 | 0.00 | 0.00 | 0.00 | 27 | 1008.9 |
| 20260503212954 | 75 | 326 | 7.0 | 8.0 | 0.00 | 0.00 | 0.00 | 26 | 1008.7 |
| 20260503212452 | 74 | 347 | 7.0 | 8.0 | 0.00 | 0.00 | 0.00 | 28 | 1008.9 |
| 20260503211949 | 75 | 327 | 4.0 | 5.0 | 0.00 | 0.00 | 0.00 | 29 | 1008.9 |
| 20260503211447 | 75 | 28 | 12.0 | 15.0 | 0.00 | 0.00 | 0.00 | 29 | 1008.8 |
| 20260503210942 | 75 | 324 | 7.0 | 8.0 | 0.00 | 0.00 | 0.00 | 28 | 1008.9 |
| 20260503210439 | 75 | 292 | 2.0 | 2.0 | 0.00 | 0.00 | 0.00 | 28 | 1009.0 |
| 20260503205934 | 75 | 330 | 7.0 | 9.0 | 0.00 | 0.00 | 0.00 | 28 | 1009.0 |
| 20260503205432 | 75 | 289 | 3.0 | 3.0 | 0.00 | 0.00 | 0.00 | 28 | 1009.0 |
| 20260503204928 | 75 | 302 | 9.0 | 11.0 | 0.00 | 0.00 | 0.00 | 27 | 1009.5 |
| 20260503204425 | 74 | 335 | 5.0 | 6.0 | 0.00 | 0.00 | 0.00 | 30 | 1009.5 |
| 20260503203922 | 74 | 352 | 9.0 | 10.0 | 0.00 | 0.00 | 0.00 | 29 | 1009.5 |
| 20260503203420 | 74 | 332 | 5.0 | 7.0 | 0.00 | 0.00 | 0.00 | 29 | 1009.2 |
| 20260503202916 | 74 | 39 | 9.0 | 10.0 | 0.00 | 0.00 | 0.00 | 31 | 1009.5 |
| 20260503202415 | 74 | 302 | 5.0 | 6.0 | 0.00 | 0.00 | 0.00 | 30 | 1009.6 |
| 20260503201913 | 74 | 336 | 7.0 | 9.0 | 0.00 | 0.00 | 0.00 | 29 | 1009.8 |
| 20260503201409 | 74 | 61 | 1.0 | 2.0 | 0.00 | 0.00 | 0.00 | 29 | 1009.6 |
| 20260503200907 | 74 | 321 | 8.0 | 9.0 | 0.00 | 0.00 | 0.00 | 30 | 1009.7 |
| 20260503200403 | 73 | 277 | 3.0 | 5.0 | 0.00 | 0.00 | 0.00 | 31 | 1009.9 |
| 20260503195900 | 73 | 308 | 5.0 | 6.0 | 0.00 | 0.00 | 0.00 | 29 | 1010.0 |
| 20260503195356 | 73 | 293 | 6.0 | 7.0 | 0.00 | 0.00 | 0.00 | 29 | 1010.1 |
| 20260503194854 | 74 | 13 | 6.0 | 8.0 | 0.00 | 0.00 | 0.00 | 30 | 1009.9 |
| 20260503194350 | 74 | 12 | 7.0 | 9.0 | 0.00 | 0.00 | 0.00 | 31 | 1010.1 |
| 20260503193846 | 73 | 10 | 8.0 | 10.0 | 0.00 | 0.00 | 0.00 | 31 | 1010.1 |
| 20260503193342 | 72 | 2 | 5.0 | 6.0 | 0.00 | 0.00 | 0.00 | 32 | 1009.9 |
| 20260503192838 | 71 | 22 | 3.0 | 5.0 | 0.00 | 0.00 | 0.00 | 33 | 1010.1 |
| 20260503192333 | 72 | 328 | 8.0 | 9.0 | 0.00 | 0.00 | 0.00 | 31 | 1010.3 |